Regional Weather Roundup
Issued by NWS Albany, NY

Home | Current Version | Previous Version | Text Only | Print | Product List | Glossary On
Versions: 1 2 3 4 5 6 7 8 9 10 11 12 13 14 15 16 17 18 19 20 21 22 23 24 25 26 27
000
ASUS41 KALY 181210
RWRALY

NEW YORK STATE HOURLY WEATHER ROUNDUP
NATIONAL WEATHER SERVICE ALBANY NY
700 AM EST SUN FEB 18 2018

NOTE: "FAIR" INDICATES FEW OR NO CLOUDS BELOW 12,000 FEET WITH NO
SIGNIFICANT WEATHER AND/OR NO OBSTRUCTIONS TO VISIBILITY.

NYZ032-033-038>043-046>054-057>066-NYZ062>081-082-084-181300-
EAST


CITY           SKY/WX    TMP DP  RH WIND       PRES   REMARKS
ALBANY         FAIR      31  23  72 NW6       30.13R WCI  25
GLENS FALLS    FOG       20  19  96 E3        30.11R VSB 1/4
POUGHKEEPSIE   CLOUDY    32  26  78 W6        30.10R WCI  26
NEWBURGH       PTCLDY    30  27  86 W5        30.11R WCI  25
MONTGOMERY     FAIR      33  21  61 NW14G26   30.09R WCI  23
WHITE PLAINS   FAIR      33  27  78 NW18G24   30.07R WCI  22
ISLIP          FAIR      34  31  88 NW15      30.08R WCI  24
NEW YORK CITY  FAIR      36  29  75 NW15      30.12R WCI  27
CENTRAL PARK   FAIR      35  29  78 W7        30.13R WCI  29
$$

NYZ005>009-017-018-044>046-055-056-181300-
CENTRAL


CITY           SKY/WX    TMP DP  RH WIND       PRES   REMARKS
FULTON         CLOUDY    30  26  85 W7        30.16R WCI  23
SYRACUSE       FLURRIES  29  27  92 SW9       30.17R WCI  20
ROME           FLURRIES  29  26  89 W10       30.17R WCI  20
ELMIRA         CLOUDY    31  24  75 W8        30.19R WCI  23
BINGHAMTON     MOCLDY    26  21  81 NW8       30.13R WCI  18
MONTICELLO     FLURRIES  26  20  77 NW15G25   30.11R WCI  14
$$

NYZ026>034-041>043-087-181300-
NORTH


CITY           SKY/WX    TMP DP  RH WIND       PRES   REMARKS
WATERTOWN      CLOUDY    28  26  92 SW6       30.16R WCI  22
FORT DRUM      NOT AVBL
OGDENSBURG     FAIR      26  22  85 MISG      30.11R
MASSENA        CLOUDY    28  22  78 SW8       30.11R WCI  20
SARANAC LAKE   CLOUDY    23  20  88 W7        30.00R WCI  15
PLATTSBURGH    CLOUDY    28  24  85 VRB3      30.07R
$$

NYZ001>004-010>016-019>021-085-181300-
WEST


CITY           SKY/WX    TMP DP  RH WIND       PRES   REMARKS
NIAGARA FALLS  CLOUDY    32  24  72 W12       30.21R WCI  23
BUFFALO        CLOUDY    29  26  89 SW12      30.22R WCI  19
DUNKIRK        CLOUDY    29  27  92 SW12      30.25R WCI  19
JAMESTOWN        N/A    N/A N/A N/A MISG        N/A
WELLSVILLE     CLOUDY    28  22  78 MISG      30.18R
ROCHESTER      FAIR      29  25  85 W10       30.20R WCI  20
PENN YAN       CLOUDY    30  21  69 W10       30.19R WCI  21
$$

             KEY
       WCI = WIND CHILL INDEX
       VSB = VISIBILITY
       HX  = HEAT INDEX
$$




USA.gov is the U.S. government's official web portal to all federal, state and local government web resources and services.